Weather History for KODX - August, 2014

Change the Weather History Date:

Saturday, August 30, 2014

  Actual Average Record
Temperature  
Mean Temperature 68 °F 70 °F  
Max Temperature 81 °F 84 °F 102 °F (2012)
Min Temperature 55 °F 57 °F 48 °F (2004)
Degree Days  
Heating Degree Days 0 1  
Month to date heating degree days 0 3  
Since 1 June heating degree days 51 45  
Since 1 July heating degree days 19 8  
Cooling Degree Days 3 6  
Month to date cooling degree days 230 252  
Year to date cooling degree days 630 752  
Since 1 June cooling degree days 561 711  
Growing Degree Days 18 (Base 50)    
Moisture  
Dew Point 60 °F    
Average Humidity 77    
Maximum Humidity 100    
Minimum Humidity 54    
Precipitation  
Precipitation 0.00 in 0.08 in 1.04 in (1969)
Month to date precipitation 5.27 3.07  
Year to date precipitation 17.64 18.82  
Sea Level Pressure  
Sea Level Pressure 29.90 in    
Wind  
Wind Speed 6 mph (SE)    
Max Wind Speed 17 mph    
Max Gust Speed 22 mph    
Visibility 10 miles    
Events      
T = Trace of Precipitation, MM = Missing Value Source: NWS Daily Summary

Daily Weather History Graph

Daily Weather History Graph

Search for Another Location

Airport or City:

Trip Planner

Search our weather history database for the weather conditions in past years. The results will help you decide how hot, cold, wet, or windy it might be!

Date:

Astronomy

Aug. 30, 2014 Rise Set
Actual Time 6:59 AM CDT 8:12 PM CDT
Civil Twilight 6:31 AM CDT 8:40 PM CDT
Nautical Twilight 5:56 AM CDT 9:14 PM CDT
Astronomical Twilight 5:20 AM CDT 9:50 PM CDT
Moon 11:53 AM CDT (8/30) 10:42 PM CDT (8/30)
Length of Visible Light 14h 09m
Length of Day
13h 12m
Waxing Crescent, 23% of the Moon is Illuminated
Aug 30
Waxing Crescent
Sep 2
First Quarter
Sep 8
Full
Sep 15
Last Quarter
Sep 24
New

Hourly Weather History & Observations

Time (CDT) Temp. Heat Index Dew Point Humidity Pressure Visibility Wind Dir Wind Speed Gust Speed Precip Events Conditions
12:53 AM 64.0 °F - 60.1 °F 87% 29.91 in 10.0 mi NW 9.2 mph - N/A   Clear
1:53 AM 62.1 °F - 59.0 °F 90% 29.92 in 10.0 mi NW 4.6 mph - N/A   Clear
2:53 AM 60.1 °F - 57.9 °F 93% 29.93 in 10.0 mi NW 3.5 mph - N/A   Clear
3:53 AM 59.0 °F - 57.0 °F 93% 29.94 in 10.0 mi Calm Calm - N/A   Clear
4:53 AM 57.9 °F - 55.9 °F 93% 29.95 in 10.0 mi NW 6.9 mph - N/A   Clear
5:53 AM 57.0 °F - 55.0 °F 93% 29.96 in 10.0 mi NNW 4.6 mph - N/A   Clear
6:53 AM 55.9 °F - 55.0 °F 97% 29.96 in 10.0 mi North 3.5 mph - N/A   Clear
7:35 AM 55.9 °F - 55.0 °F 97% 29.99 in 10.0 mi NNW 3.5 mph - N/A   Scattered Clouds
7:44 AM 57.0 °F - 55.9 °F 96% 30.00 in 10.0 mi Calm Calm - N/A   Mostly Cloudy
7:53 AM 57.9 °F - 57.0 °F 97% 29.98 in 10.0 mi Calm Calm - N/A   Overcast
8:53 AM 59.0 °F - 57.9 °F 96% 29.99 in 8.0 mi Calm Calm - N/A   Overcast
9:53 AM 61.0 °F - 57.9 °F 90% 29.99 in 9.0 mi Calm Calm - N/A   Overcast
10:30 AM 63.0 °F - 59.0 °F 87% 30.00 in 10.0 mi NE 3.5 mph - N/A   Mostly Cloudy
10:53 AM 64.0 °F - 59.0 °F 84% 29.98 in 10.0 mi Variable 3.5 mph - N/A   Scattered Clouds
11:53 AM 69.1 °F - 61.0 °F 75% 29.96 in 10.0 mi Calm Calm - N/A   Clear
12:53 PM 73.9 °F - 61.0 °F 64% 29.93 in 10.0 mi SE 8.1 mph - N/A   Clear
1:53 PM 77.0 °F - 61.0 °F 58% 29.91 in 10.0 mi SE 10.4 mph - N/A   Clear
2:53 PM 79.0 °F - 62.1 °F 56% 29.88 in 10.0 mi SE 11.5 mph 17.3 mph N/A   Clear
3:53 PM 80.1 °F 81.5 °F 63.0 °F 56% 29.85 in 10.0 mi SSE 10.4 mph - N/A   Clear
4:53 PM 80.1 °F 81.7 °F 64.0 °F 58% 29.83 in 10.0 mi SSE 12.7 mph 20.7 mph N/A   Partly Cloudy
5:53 PM 80.1 °F 81.7 °F 64.0 °F 58% 29.82 in 10.0 mi SSE 10.4 mph - N/A   Clear
6:53 PM 80.1 °F 81.9 °F 64.9 °F 60% 29.81 in 10.0 mi SSE 11.5 mph - N/A   Clear
7:53 PM 77.0 °F - 66.0 °F 69% 29.79 in 10.0 mi SE 8.1 mph - N/A   Clear
8:53 PM 73.0 °F - 66.0 °F 79% 29.78 in 10.0 mi SE 6.9 mph - N/A   Clear
9:53 PM 72.0 °F - 66.9 °F 84% 29.78 in 10.0 mi SE 10.4 mph - N/A   Clear
10:53 PM 72.0 °F - 64.9 °F 78% 29.78 in 10.0 mi SE 8.1 mph - N/A   Clear
11:53 PM 70.0 °F - 64.9 °F 84% 29.77 in 10.0 mi SSE 6.9 mph - N/A   Clear